STARLINK-5730, 55611

Orbit data source: Space-Track

STARLINK-5730, 55611 is a payload satellite owned by SpaceX/Seattle (US) in LEO that was launched on Sun, 12 Feb 2023 UTC via an FALCON 9 launch vehicle from the Air Force Eastern Test Range (AFETR). Payload-class satellites include a variety of spacecraft equipped with specific instruments for various scientific and technological missions. These include communications satellites like Starlink; space stations such as the ISS; scientific satellites like the Hubble; Earth observation satellites from companies like Planet Labs, Umbra, and HawkEye 360; GPS; miniature CubeSats for education and research; and military/defense satellites.

Loading next visibility...
Identifier
55611, 2023-020AU
Orbit
LEO
Country
Flag of USUS
Related business
Manufacturer
SpaceX/Seattle
Mission
Operational spacecraft
Bus & Motor
STARLINK, Unknown motor
Mass
305 kg wet, ~290 kg dry
Launch date (UTC)
2023-02-12 (3 years ago)
Launch vehicle
FALCON 9
Launch site
Air Force Eastern Test Range (AFETR)
Object type
Payload
Rocket body
Debris
Shape & HBR
Unknown shape, 10.1 m
Radar Cross Section
Large (>1 m²)

Expand to show TLE details & history
Last TLE update: 13 hours ago

TLE from 13 hours ago
0 STARLINK-5730
1 55611U 23020AU  26048.57754435 -.00000158  00000-0  33945-5 0  9999
2 55611  43.0027 100.9729 0001139 262.3454  97.7259 15.02535670166044
Epoch: 2026-02-17T13:51Z
TLE epoch observation values (Epoch: 2026-02-17T13:51:39.831Z)
Latitude
-0.00003°
Longitude
105.50136°
Altitude
558.965 km
Speed
7.584 km/s
True Right ascension
06h 43m 53s
True Declination
0° 00' 00"
Sunlit
Object was in full shadow at epoch
Visualization orbit readout
Latitude
Unknown
Longitude
Unknown
Altitude
Unknown
Speed
Unknown
Apparent Right ascension
Unknown
Apparent Declination
Unknown
Sunlit
N/A
Visualization observer readout
Local Sidereal Time
06:10:20
Azimuth
Unknown
Elevation
Unknown
Doppler factor
Unknown
Orbital elements
Apogee altitude
561.794 km
Perigee altitude
560.214 km
Semi-major axis
6,939.141 km
Eccentricity
0.00011
Inclination
43.0027°
RAAN
100.9729°
Arg. of periapsis
262.3454°
True anomaly
97.73883°
Mean anomaly
97.7259°
Eccentric anomaly
97.73237°
Mean motion
3.75478 °/min
Orbital period
95.88 mins
BSTAR
0.0000033945
Loading maneuver chart data...
Computing Atmospheric mass density...
Loading historical data...
Loading historical data...
Loading historical data...
Loading historical data...
Loading historical data...
Loading historical data...
Loading historical data...

Documentation

Showing up to 5 results
|